Florala, AL

10:00 PM CDT on March 22, 2017 (GMT -0500)
Florala

Weather History for K0J4 - January, 2013

Change the Weather History Date:

Tuesday, January 22, 2013

  Actual Average (KCEW) Record (KCEW)
Temperature  
Mean Temperature 46 °F -  
Max Temperature 57 °F 61 °F 80 °F (1949)
Min Temperature 36 °F 35 °F 21 °F (2009)
Degree Days  
Heating Degree Days 18    
Moisture  
Dew Point 30 °F    
Average Humidity 60    
Maximum Humidity 86    
Minimum Humidity 27    
Precipitation  
Precipitation 0.00 in - - ()
Sea Level Pressure  
Sea Level Pressure 30.31 in    
Wind  
Wind Speed 4 mph (North)    
Max Wind Speed 9 mph    
Max Gust Speed -    
Visibility 10 miles    
Events      
Averages and records for this station are not official NWS values.
T = Trace of Precipitation, MM = Missing Value Source: NWS Daily Summary

Daily Weather History Graph

Daily Weather History Graph

Search for Another Location

Airport or City:

Trip Planner

Search our weather history database for the weather conditions in past years. The results will help you decide how hot, cold, wet, or windy it might be!

Date:

Astronomy

Jan. 22, 2013 Rise Set
Actual Time 6:42 AM CST 5:12 PM CST
Civil Twilight 6:16 AM CST 5:37 PM CST
Nautical Twilight 5:46 AM CST 6:07 PM CST
Astronomical Twilight 5:18 AM CST 6:36 PM CST
Moon 1:37 PM CST (1/22) 3:00 AM CST (1/22)
Length of Visible Light 11h 21m
Length of Day
10h 30m
Waxing Gibbous, 83% of the Moon is Illuminated
Jan 22
Waxing Gibbous
Jan 26
Full
Feb 3
Last Quarter
Feb 10
New
Feb 17
First Quarter

Hourly Weather History & Observations

Time (CST) Temp. Windchill Dew Point Humidity Pressure Visibility Wind Dir Wind Speed Gust Speed Precip Events Conditions
12:58 AM 45.0 °F 43.5 °F 35.1 °F 68% 30.22 in 10.0 mi North 3.5 mph - N/A   Clear
1:58 AM 44.1 °F 40.8 °F 34.0 °F 68% 30.22 in 10.0 mi North 5.8 mph - N/A   Clear
2:58 AM 42.1 °F 39.2 °F 32.0 °F 67% 30.23 in 10.0 mi North 4.6 mph - N/A   Clear
3:58 AM 39.0 °F - 32.0 °F 76% 30.25 in - Calm Calm - N/A   Clear
4:58 AM 37.0 °F - 30.9 °F 79% 30.27 in - Calm Calm - N/A   Clear
5:58 AM 37.9 °F 34.4 °F 28.9 °F 70% 30.30 in - Variable 4.6 mph - N/A   Clear
6:58 AM 37.0 °F 34.5 °F 28.0 °F 70% 30.32 in - Variable 3.5 mph - N/A   Clear
7:58 AM 37.9 °F 33.5 °F 28.0 °F 68% 30.34 in - North 5.8 mph - N/A   Clear
8:58 AM 42.1 °F 38.4 °F 28.0 °F 58% 30.37 in - NNE 5.8 mph - N/A   Clear
9:58 AM 48.0 °F - 25.0 °F 41% 30.38 in - North 8.1 mph - N/A   Clear
10:58 AM 52.0 °F - 23.0 °F 32% 30.36 in - NE 9.2 mph - N/A   Clear
11:58 AM 55.0 °F - 23.0 °F 29% 30.34 in 10.0 mi Variable 3.5 mph - N/A   Clear
12:58 PM 55.0 °F - 23.0 °F 29% 30.31 in 10.0 mi Calm Calm - N/A   Clear
1:58 PM 57.9 °F - 24.1 °F 27% 30.30 in 10.0 mi North 6.9 mph - N/A   Clear
2:58 PM 57.9 °F - 26.1 °F 30% 30.30 in 10.0 mi North 8.1 mph - N/A   Clear
3:58 PM 57.0 °F - 26.1 °F 30% 30.31 in 10.0 mi North 3.5 mph - N/A   Clear
4:58 PM 53.1 °F - 30.9 °F 43% 30.31 in 10.0 mi Calm Calm - N/A   Clear
5:58 PM 44.1 °F - 36.0 °F 73% 30.32 in 10.0 mi Calm Calm - N/A   Clear
6:58 PM 42.1 °F - 34.0 °F 73% 30.33 in 10.0 mi Calm Calm - N/A   Clear
7:58 PM 39.9 °F - 33.1 °F 77% 30.34 in 10.0 mi Calm Calm - N/A   Clear
8:58 PM 39.0 °F - 33.1 °F 79% 30.35 in - Calm Calm - N/A   Clear
9:58 PM 39.0 °F 36.8 °F 30.9 °F 73% 30.36 in - North 3.5 mph - N/A   Clear
10:58 PM 36.0 °F - 32.0 °F 86% 30.37 in - Calm Calm - N/A   Clear
11:58 PM 36.0 °F - 32.0 °F 86% 30.36 in - Calm Calm - N/A   Clear